Flag for U.S.A. Weather past 2 weeks in Kalispell, Montana, U.S.A.

Now
79 °F

Sunny.


Feels Like: 78 °F
Forecast: 47 / 76 °F
Wind: 10 mph from South

Location: Kalispell - Glacier Park International

Current Time: Sep 1, 2015 at 5:20:55 PM

Latest Report: Sep 1, 2015 at 4:55 PM


Visibility: 10 mi

Pressure: 29.75 "Hg (26.83 "Hg at 902m altitude)

Humidity: 20%

Dew point: 35 °F

Location of KalispellLocation

Historic Weather in Kalispell — Graph

°F

Kalispell temperature yesterday

Maximum temperature yesterday: 70 °F (at 5:55 PM)
Minimum temperature yesterday: 42 °F (at 6:55 AM)
Average temperature yesterday: 57 °F

Past Weeks' High & Low Weather Summary

 TemperatureHumidityPressure
High93 °F (Aug 26, 4:55 PM)93% (Aug 31, 3:55 AM)30.27 "Hg (Aug 31, 3:55 AM)
Low33 °F (Aug 23, 6:55 AM)12% (Aug 26, 3:55 PM)29.61 "Hg (Aug 21, 6:55 AM)
Average62 °F51%29.93 "Hg
* Reported Aug 17 2:55 PM — Sep 1 2:55 PM, Kalispell, Weather by CustomWeather, © 2015

Note: Actual official high and low records may vary slightly from our data, if they occured in-between our weather recording intervals... More about our weather records

Advertising

Kalispell weather history for previous 24 hours

 ConditionsComfort  
Time TempWeatherWind HumidityBarometerVisibility
2:55 PM
Tue, Sep 1
79 °FScattered clouds.12 mph23%29.79 "Hg10 mi
1:55 PM73 °FScattered clouds.10 mph27%29.82 "Hg10 mi
12:55 PM74 °FSunny.12 mph27%29.84 "Hg10 mi
11:55 AM72 °FSunny.10 mph28%29.86 "Hg10 mi
10:55 AM69 °FSunny.14 mph32%29.86 "Hg10 mi
9:55 AM66 °FSunny.N/A40%29.87 "Hg10 mi
8:55 AM57 °FSunny.6 mph58%29.88 "Hg10 mi
7:55 AM52 °FOvercast.No wind72%29.89 "Hg10 mi
6:55 AM45 °FPassing clouds.3 mph86%29.89 "Hg10 mi
5:55 AM44 °FClear.3 mph82%29.88 "Hg10 mi
4:55 AM45 °FPassing clouds.No wind82%29.88 "Hg10 mi
3:55 AM49 °FPassing clouds.5 mph74%29.86 "Hg10 mi
2:55 AM49 °FPassing clouds.6 mph77%29.85 "Hg10 mi
1:55 AM50 °FClear.3 mph74%29.86 "Hg10 mi
12:55 AM52 °FClear.6 mph69%29.85 "Hg10 mi
11:55 PM
Mon, Aug 31
51 °FPassing clouds.3 mph71%29.86 "Hg10 mi
10:55 PM57 °FOvercast.No wind62%29.85 "Hg10 mi
9:55 PM61 °FOvercast.3 mph52%29.87 "Hg10 mi
8:55 PM64 °FOvercast.6 mph45%29.87 "Hg10 mi
7:55 PM64 °FPartly sunny.5 mph45%29.88 "Hg10 mi
6:55 PM68 °FPassing clouds.7 mph36%29.89 "Hg10 mi
5:55 PM70 °FSunny.13 mph32%29.90 "Hg10 mi
Weather by CustomWeather, © 2015

See weather overviewHow to use our weather pages